This is the latest recevied weather packets stored in our database for station/object F4AMY-13. If no packets are shown the sender has not sent any weather packets the latest 10 day(s).
| Time | Temp. | Humidity | Pressure | Rain* | Wind** | Luminosity | Snow |
|---|---|---|---|---|---|---|---|
| 1777849317 | 15° C | 60% | 1015.5 hPa | 0 mm | 0 m/s | 0 W/m² | - |
| 1777849017 | 15° C | 58% | 1015.2 hPa | 0 mm | 0 m/s | 0 W/m² | - |
| 1777848717 | 15° C | 54% | 1015.1 hPa | 0 mm | 0 m/s | 0 W/m² | - |
| 1777848417 | 15.56° C | 54% | 1015 hPa | 0 mm | 0 m/s | 0 W/m² | - |
| 1777848117 | 15.56° C | 54% | 1015 hPa | 0 mm | 0 m/s | 0 W/m² | - |
| 1777847817 | 15.56° C | 54% | 1014.9 hPa | 0 mm | 0 m/s | 0 W/m² | - |
| 1777847517 | 15.56° C | 55% | 1015.1 hPa | 0 mm | 0 m/s | 0 W/m² | - |
| 1777847217 | 15.56° C | 54% | 1015 hPa | 0 mm | 0 m/s | 0 W/m² | - |
| 1777846917 | 15.56° C | 55% | 1014.9 hPa | 0 mm | 0 m/s | 0 W/m² | - |
| 1777846617 | 15.56° C | 54% | 1014.9 hPa | 0 mm | 0 m/s | 0 W/m² | - |
| 1777846317 | 15.56° C | 54% | 1015 hPa | 0 mm | 0 m/s | 0 W/m² | - |
| 1777846017 | 15.56° C | 54% | 1014.8 hPa | 0 mm | 0 m/s | 0 W/m² | - |
| 1777845717 | 15.56° C | 56% | 1015.1 hPa | 0 mm | 0 m/s | 0 W/m² | - |
| 1777845417 | 15.56° C | 54% | 1015.1 hPa | 0 mm | 0 m/s | 0 W/m² | - |
| 1777845116 | 15.56° C | 54% | 1015 hPa | 0 mm | 0 m/s | 0 W/m² | - |
| 1777844816 | 15.56° C | 54% | 1015.1 hPa | 0 mm | 0 m/s | 0 W/m² | - |
| 1777844516 | 15.56° C | 52% | 1015.2 hPa | 0 mm | 0 m/s | 0 W/m² | - |
| 1777844216 | 15.56° C | 53% | 1014.8 hPa | 0 mm | 0 m/s | 0 W/m² | - |
| 1777843916 | 15.56° C | 53% | 1014.8 hPa | 0 mm | 0 m/s | 0 W/m² | - |
| 1777843616 | 15.56° C | 51% | 1014.8 hPa | 0 mm | 0 m/s | 0 W/m² | - |
| 1777843316 | 15.56° C | 51% | 1014.8 hPa | 0 mm | 0 m/s | 0 W/m² | - |
| 1777843016 | 15.56° C | 49% | 1015 hPa | 0 mm | 0 m/s | 0 W/m² | - |
| 1777842716 | 15.56° C | 47% | 1015 hPa | 0 mm | 0 m/s | 0 W/m² | - |
| 1777842416 | 15.56° C | 50% | 1014.8 hPa | 0 mm | 0 m/s | 0 W/m² | - |
| 1777842116 | 15.56° C | 44% | 1014.9 hPa | 0 mm | 0 m/s | 0 W/m² | - |
* Rain latest hour (hover to see other rain measurements)
** Current wind speed in m/s (hover to see current wind gust speed)